Погода на Коста-Брава

Испания     41°43′48″N   2°55′51″E
темп.,
°C
ветер,
м/с
пор.,
м/с
влажн.,
%
обл.,
%
осадки,
мм/ч
давл.,
гПа
погр.,
м
31 июля, сб
сб3123:00+22св34830 0.0 1012113
02:00+21сз22820 0.1 101263
05:00+20ссз33840 0.0 101187
08:00+21с34740 0.0 1011145
11:00+27всв33500 0.0 1011779
14:00+26вюв54579 0.0 1010826
17:00+25вюв445821 0.0 1010742
20:00+24всв336134 0.1 1008438
1 августа, вс
вс123:00+17сз4591100 3.9 1012160
02:00+16с589299 13.4 1013295
05:00+17ссз358525 0.1 1011187
08:00+18зюз118096 0.2 1012142
11:00+21ююз237685 1.9 1014363
14:00+22зюз577226 5.8 1014899
17:00+21ю687683 3.4 1014876
20:00+21ююв457812 7.5 1014352
2 августа, пн
пн223:00+20ю328212 0.8 1016138
02:00+19ссв2279100 1.1 1016130
05:00+19св117892 0.0 1016237
08:00+19с1178100 0.0 1017159
11:00+22юв1270100 0.0 1017556
14:00+24ю4465100 0.1 1017864
17:00+24ю6765100 0.0 1016829
20:00+23ю4570100 0.1 1016686
3 августа, вт
вт323:00+21юз337898 0.0 1017243
02:00+20з228311 0.0 1016108
05:00+19зсз22854 0.0 101684
08:00+20с2379100 0.0 101694
11:00+24юв335721 0.0 1017627
14:00+25ююз34570 0.0 1016859
17:00+26ююз67545 0.0 1015577
20:00+24юз69705 0.0 1014459
4 августа, ср
ср423:00+22зюз4678100 0.0 1015196
02:00+21зюз347637 0.0 1015139
05:00+21з3476100 0.0 1014118
08:00+21ссв2267100 0.0 101579
11:00+24в556530 0.0 1017618
14:00+23в236984 0.2 1017286
17:00+23вюв2366100 0.2 1017367
20:00+23зюз1168100 0.2 101775